Location: Camp Crooked Creek
(37.9149°N, 85.6607°W)
Time: 20:27:36
(UTC-05:00)

Amateur Radio Satellites - All Passes

Search period start: 25 November 2014 19:57
Search period end: 26 November 2014 19:57
Location: Camp Crooked Creek, 37.9149°N, 85.6607°W

Satellite Date Start Highest point End Downlink Frequencies (MHz)
Time Altitude Azimuth
SEEDS 25 Nov 19:58:38 20:01:07 16° 66° (ENE) 20:03:37 437.485
DOVE 4 25 Nov 20:01:40 20:02:44 11° 65° (ENE) 20:03:47 437.250
AAUSAT CUBESAT 2 25 Nov 20:15:53 20:18:42 18° 68° (ENE) 20:21:31 437.432
AIST 1 25 Nov 20:17:06 20:21:29 84° 96° (E) 20:25:56
CANX-2 25 Nov 20:24:30 20:28:24 38° 72° (ENE) 20:32:20 2200.000
DX 1 25 Nov 20:25:18 20:26:52 12° 63° (ENE) 20:28:25 434.975-435.025
BEESAT 3 25 Nov 20:28:41 20:32:41 57° 117° (ESE) 20:36:46 437.485
COMPASS 1 25 Nov 20:30:00 20:33:36 29° 71° (ENE) 20:37:14 437.405
GOMX 1 25 Nov 20:38:17 20:42:44 38° 73° (ENE) 20:46:55 467.674
CINEMA 3 25 Nov 20:38:34 20:41:15 16° 67° (ENE) 20:43:53 145.822/145.860
BEESAT 2 25 Nov 20:43:43 20:47:49 77° 119° (ESE) 20:52:00 435.950
ZACube-1 25 Nov 20:54:58 20:55:03 10° 64° (ENE) 20:55:07 437.345
HO-68 25 Nov 20:58:49 21:06:00 81° 255° (WSW) 21:13:15 435.675
CUTE 1.7 & AOD 2 25 Nov 20:58:52 21:03:04 89° 258° (WSW) 21:07:19 437.475
BRITE-PL 25 Nov 21:04:26 21:09:34 81° 258° (WSW) 21:14:17 437.365/2234.400
PCSat 25 Nov 21:04:39 21:09:39 38° 304° (NW) 21:14:41 145.827
PHONESAT 2.4 25 Nov 21:10:09 21:13:19 27° 211° (SSW) 21:16:28 2401.200-2431.200
AIST 2 25 Nov 21:16:31 21:20:43 84° 119° (ESE) 21:25:01 435.215
AISAT 25 Nov 21:18:38 21:21:03 15° 65° (ENE) 21:23:28 437.250
UKube-1 25 Nov 21:23:06 21:27:18 50° 73° (ENE) 21:31:32 .
VERMONT LUNAR 25 Nov 21:23:32 21:25:42 15° 215° (SW) 21:27:53 437.305
RS-15 25 Nov 21:24:48 21:30:40 15° 357° (N) 21:36:37 29.354- 29.394
FUNcube-1 25 Nov 21:26:31 21:29:54 24° 70° (ENE) 21:33:15 145.935
SEEDS 25 Nov 21:32:41 21:36:36 40° 262° (W) 21:40:35 437.485
Oscar 11 25 Nov 21:34:34 21:38:51 75° 76° (ENE) 21:43:09 145.826/435.025
DOVE 4 25 Nov 21:35:22 21:40:01 69° 259° (WSW) 21:44:26 437.250
GONETS M04 25 Nov 21:49:25 21:56:05 25° 278° (W) 22:02:44
CUBEBUG 2 25 Nov 21:50:03 21:54:17 64° 75° (ENE) 21:58:27 437.445
AAUSAT CUBESAT 2 25 Nov 21:50:21 21:54:07 33° 263° (W) 21:57:55 437.432
UWE-3 25 Nov 21:50:59 21:55:09 55° 75° (ENE) 21:59:15 435.000/436.395/437.385
DELFI C3 25 Nov 21:56:42 22:00:44 70° 259° (WSW) 22:04:50 145.870
DX 1 25 Nov 21:58:13 22:02:33 62° 259° (WSW) 22:06:55 434.975-435.025
CANX-2 25 Nov 22:01:58 22:04:30 16° 267° (W) 22:07:02 2200.000
50 SAT 25 Nov 22:03:27 22:07:00 30° 71° (ENE) 22:10:32 437.505
COMPASS 1 25 Nov 22:06:16 22:09:21 20° 266° (W) 22:12:27 437.405
BEESAT 3 25 Nov 22:08:55 22:11:17 15° 315° (NW) 22:13:40 437.485
HUMSAT D 25 Nov 22:12:13 22:16:11 48° 74° (ENE) 22:20:10 437.325/437.525
CINEMA 3 25 Nov 22:13:59 22:18:10 41° 261° (W) 22:22:13 145.822/145.860
ANTELSAT 25 Nov 22:15:05 22:17:10 13° 92° (E) 22:19:15 437.575/2403.000
GOMX 1 25 Nov 22:17:29 22:20:54 19° 265° (W) 22:24:12 467.674
ESTCUBE 1 25 Nov 22:24:56 22:28:46 27° 69° (ENE) 22:32:37 437.505/2401.250
BEESAT 2 25 Nov 22:25:01 22:26:39 12° 317° (NW) 22:28:17 435.950
VELOX 1 25 Nov 22:26:37 22:31:05 79° 76° (ENE) 22:35:34 145.980
ZACube-1 25 Nov 22:26:41 22:30:53 64° 259° (W) 22:35:02 437.345
POLYITAN 1 25 Nov 22:35:48 22:38:02 14° 93° (E) 22:40:16 437.675
QB50P2 25 Nov 22:37:47 22:40:12 15° 93° (E) 22:42:36 145.880/145.840
DUCHIFAT 1 25 Nov 22:43:42 22:46:29 17° 94° (E) 22:49:14 145.980
TISAT 1 25 Nov 22:49:54 22:51:21 12° 64° (ENE) 22:52:47 437.305
HO-68 25 Nov 22:52:18 22:54:39 12° 271° (W) 22:57:01 435.675
AISAT 25 Nov 22:52:53 22:57:14 51° 260° (W) 23:01:37 437.250
AIST 2 25 Nov 22:58:23 22:59:57 12° 317° (NW) 23:01:31 435.215
SPROUT 25 Nov 22:58:25 23:00:18 13° 65° (ENE) 23:02:11 437.525
UKube-1 25 Nov 23:01:44 23:03:44 13° 268° (W) 23:05:44 .
NANOSAT C BR1 25 Nov 23:02:21 23:06:00 28° 97° (E) 23:09:39 145.865
FUNcube-1 25 Nov 23:02:41 23:06:10 25° 264° (W) 23:09:37 145.935
CUBEBUG 1 25 Nov 23:06:34 23:11:00 76° 76° (ENE) 23:15:27 437.445
TIGRISAT 25 Nov 23:07:36 23:11:55 50° 100° (E) 23:16:19 435.000
DANDE 25 Nov 23:11:26 23:12:40 11° 74° (ENE) 23:13:57 436.750
QB50P1 25 Nov 23:12:00 23:15:56 37° 98° (E) 23:19:50 145.935-145.965
UNISAT 6 25 Nov 23:21:02 23:25:29 74° 102° (ESE) 23:30:02 437.425
BUGSAT 1 25 Nov 23:23:59 23:27:51 40° 99° (E) 23:31:39 437.445
ISS 25 Nov 23:30:28 23:33:38 46° 136° (SE) 23:36:48 145.825
UWE-3 25 Nov 23:31:08 23:32:00 11° 269° (W) 23:32:52 435.000/436.395/437.385
POPSAT HIP 1 25 Nov 23:36:33 23:40:47 74° 102° (ESE) 23:44:59 437.405
50 SAT 25 Nov 23:39:35 23:42:21 18° 266° (W) 23:45:07 437.505
RS-15 25 Nov 23:39:47 23:48:46 27° 34° (NNE) 23:57:59 29.354- 29.394
ANTELSAT 25 Nov 23:49:53 23:54:13 53° 286° (WNW) 23:58:38 437.575/2403.000
HUMSAT D 25 Nov 23:50:45 23:52:16 12° 268° (W) 23:53:46 437.325/437.525
ESTCUBE 1 26 Nov 00:01:46 00:05:34 26° 264° (W) 00:09:23 437.505/2401.250
POLYITAN 1 26 Nov 00:10:11 00:14:11 43° 287° (WNW) 00:18:11 437.675
BEESAT 26 Nov 00:10:46 00:13:27 15° 64° (ENE) 00:16:09 436.000
QB50P2 26 Nov 00:12:19 00:16:17 40° 288° (WNW) 00:20:15 145.880/145.840
DUCHIFAT 1 26 Nov 00:18:37 00:22:27 35° 288° (WNW) 00:26:16 145.980
TISAT 1 26 Nov 00:22:27 00:26:40 59° 259° (W) 00:30:53 437.305
AUBIESAT-1 26 Nov 00:23:25 00:27:03 33° 65° (ENE) 00:30:59 437.475
CUSAT 1 26 Nov 00:26:23 00:31:09 75° 81° (E) 00:37:37 437.405
M-CUBED/EXP-1 PRIME 26 Nov 00:28:20 00:32:06 41° 67° (ENE) 00:36:14 437.505
SPROUT 26 Nov 00:31:41 00:35:55 54° 260° (W) 00:40:09 437.525
NANOSAT C BR1 26 Nov 00:38:31 00:41:44 22° 292° (WNW) 00:44:56 145.865
TIGRISAT 26 Nov 00:45:51 00:48:16 15° 294° (WNW) 00:50:42 435.000
QB50P1 26 Nov 00:48:48 00:51:31 17° 293° (WNW) 00:54:15 145.935-145.965
DANDE 26 Nov 00:51:27 00:56:04 76° 262° (W) 01:02:23 436.750
JUGNU 26 Nov 00:58:21 01:00:36 12° 175° (S) 01:02:51 437.505
BUGSAT 1 26 Nov 01:00:46 01:02:59 14° 294° (WNW) 01:05:12 437.445
UNISAT 6 26 Nov 01:01:06 01:01:41 10° 297° (WNW) 01:02:17 437.425
MaSat-1 26 Nov 01:02:01 01:04:11 33° 63° (ENE) 01:06:24 437.345
ITUPSAT 1 26 Nov 01:04:00 01:08:39 51° 73° (ENE) 01:13:20 437.325
ISS 26 Nov 01:07:50 01:10:25 21° 332° (NNW) 01:13:01 145.825
YUBILEINY 26 Nov 01:10:56 01:12:59 11° 74° (ENE) 01:15:02 435.215
SWISSCUBE 26 Nov 01:14:52 01:19:39 75° 75° (ENE) 01:24:28 437.505
STARS 26 Nov 01:36:27 01:38:56 15° 65° (ENE) 01:41:26 437.465
Oscar 19 26 Nov 01:38:59 01:43:38 33° 97° (E) 01:48:16 437.125/150
BEESAT 26 Nov 01:46:07 01:50:48 56° 259° (W) 01:55:32 436.000
RS-15 26 Nov 01:51:46 02:03:05 82° 59° (ENE) 02:14:55 29.354- 29.394
AUBIESAT-1 26 Nov 01:59:16 02:02:09 19° 263° (W) 02:05:15 437.475
M-CUBED/EXP-1 PRIME 26 Nov 02:05:04 02:07:26 15° 264° (W) 02:09:55 437.505
CUSAT 1 26 Nov 02:12:17 02:14:12 12° 269° (W) 02:16:16 437.405
KKS-1 26 Nov 02:14:38 02:19:01 59° 74° (ENE) 02:23:24 437.445
ITAMSAT 1 26 Nov 02:31:41 02:36:32 40° 99° (E) 02:41:21 435.822/435.867
ITUPSAT 1 26 Nov 02:44:03 02:46:49 15° 268° (W) 02:49:36 437.325
JUGNU 26 Nov 02:46:31 02:48:45 12° 185° (S) 02:50:59 437.505
SRMSAT 26 Nov 02:56:44 02:59:22 13° 178° (S) 03:01:59 437.500
YUBILEINY 26 Nov 02:59:20 03:08:04 71° 93° (E) 03:16:48 435.215
Gurwin Techsat 1B 26 Nov 03:03:11 03:08:18 47° 99° (E) 03:13:23 435.225
STARS 26 Nov 03:10:46 03:15:01 47° 260° (W) 03:19:16 437.465
Oscar 19 26 Nov 03:18:31 03:22:49 27° 292° (WNW) 03:27:07 437.125/150
HORYU 2 26 Nov 03:25:02 03:29:02 31° 97° (E) 03:33:01 437.375
KKS-1 26 Nov 03:54:38 03:56:00 11° 269° (W) 03:57:22 437.445
RS-15 26 Nov 04:05:49 04:14:14 25° 258° (WSW) 04:22:56 29.354- 29.394
PCSat 26 Nov 04:11:36 04:15:17 18° 47° (NE) 04:18:57 145.827
ITAMSAT 1 26 Nov 04:11:45 04:15:45 23° 294° (WNW) 04:19:44 435.822/435.867
SO-50 26 Nov 04:15:58 04:20:27 88° 301° (WNW) 04:25:06 436.795
AO-7 26 Nov 04:22:17 04:30:06 42° 100° (E) 04:37:51 29.400- 29.500
JAS-2 26 Nov 04:42:03 04:46:28 18° 88° (E) 04:50:33 435.910
Gurwin Techsat 1B 26 Nov 04:44:02 04:47:54 21° 295° (WNW) 04:51:45 435.225
SRMSAT 26 Nov 04:45:57 04:47:40 11° 188° (S) 04:49:22 437.500
BEESAT 3 26 Nov 04:50:46 04:54:08 23° 50° (NE) 04:57:28 437.485
MOZHAYETS 4 26 Nov 04:55:23 04:59:57 82° 76° (ENE) 05:04:36
YUBILEINY 26 Nov 04:58:59 05:05:37 23° 292° (WNW) 05:12:18 435.215
HORYU 2 26 Nov 05:02:02 05:05:31 23° 292° (WNW) 05:09:01 437.375
BEESAT 2 26 Nov 05:06:00 05:09:42 29° 52° (NE) 05:13:21 435.950
O/OREOS (USA 219) 26 Nov 05:30:11 05:33:23 20° 101° (E) 05:36:36 437.305
STRAND 1 26 Nov 05:32:59 05:36:11 17° 63° (ENE) 05:39:23 437.568
AIST 2 26 Nov 05:40:30 05:44:25 33° 53° (NE) 05:48:16 435.215
CUTE-I 26 Nov 05:53:27 05:56:37 16° 92° (E) 05:59:45 437.470
PCSat 26 Nov 05:53:49 05:59:13 68° 246° (WSW) 06:04:34 145.827
SO-50 26 Nov 05:59:50 06:01:44 12° 320° (NW) 06:03:39 436.795
ISS 26 Nov 06:00:31 06:03:32 32° 32° (NNE) 06:06:32 145.825
PRISM 26 Nov 06:06:36 06:10:47 85° 257° (WSW) 06:15:03 437.425
AO-7 26 Nov 06:15:06 06:22:47 43° 297° (WNW) 06:30:28 29.400- 29.500
JAS-2 26 Nov 06:25:16 06:32:17 69° 287° (WNW) 06:38:25 435.910
AIST 1 26 Nov 06:27:28 06:30:25 17° 73° (ENE) 06:33:20
BEESAT 3 26 Nov 06:28:40 06:32:24 32° 246° (WSW) 06:36:05 437.485
CUBESAT XI-V 26 Nov 06:36:51 06:41:33 70° 75° (ENE) 06:46:15 437.345
BEESAT 2 26 Nov 06:44:27 06:47:52 24° 248° (WSW) 06:51:14 435.950
Cubesat XI-IV 26 Nov 06:50:22 06:55:38 59° 101° (E) 07:00:51 437.490
GONETS M04 26 Nov 06:59:27 07:02:58 13° 76° (ENE) 07:06:29
O/OREOS (USA 219) 26 Nov 07:08:25 07:12:31 34° 297° (WNW) 07:16:37 437.305
STRAND 1 26 Nov 07:09:49 07:14:52 57° 259° (W) 07:19:57 437.568
AIST 2 26 Nov 07:19:32 07:22:51 22° 249° (WSW) 07:26:07 435.215
CUTE-I 26 Nov 07:31:49 07:37:02 58° 287° (WNW) 07:42:12 437.470
ISS 26 Nov 07:37:19 07:40:04 24° 228° (SW) 07:42:49 145.825
AIST 1 26 Nov 08:04:13 08:08:11 34° 269° (W) 08:12:06
JAS-2 26 Nov 08:13:45 08:15:47 11° 307° (NW) 08:17:45 435.910
CUBESAT XI-V 26 Nov 08:18:30 08:19:25 11° 270° (W) 08:20:21 437.345
HO-68 26 Nov 08:29:49 08:35:01 21° 93° (E) 08:40:10 435.675
Cubesat XI-IV 26 Nov 08:31:52 08:35:12 17° 297° (WNW) 08:38:32 437.490
GOMX 1 26 Nov 08:44:42 08:45:09 10° 91° (E) 08:45:36 467.674
CUTE 1.7 & AOD 2 26 Nov 08:47:12 08:50:10 18° 94° (E) 08:53:08 437.475
GONETS M04 26 Nov 08:49:26 08:58:12 79° 94° (E) 09:07:03
BRITE-PL 26 Nov 09:11:29 09:15:12 31° 97° (E) 09:18:58 437.365/2234.400
SEEDS 26 Nov 09:19:10 09:23:07 36° 98° (E) 09:27:04 437.485
Oscar 11 26 Nov 09:25:11 09:27:47 16° 93° (E) 09:30:24 145.826/435.025
AAUSAT CUBESAT 2 26 Nov 09:35:28 09:39:30 41° 98° (E) 09:43:30 437.432
DOVE 4 26 Nov 09:36:30 09:40:17 32° 98° (E) 09:44:10 437.250
DUCHIFAT 1 26 Nov 09:36:49 09:38:12 11° 64° (ENE) 09:39:36 145.980
DELFI C3 26 Nov 09:40:19 09:43:16 19° 94° (E) 09:46:13 145.870
CUBEBUG 2 26 Nov 09:44:21 09:46:47 15° 93° (E) 09:49:14 437.445
UWE-3 26 Nov 09:44:36 09:46:27 13° 92° (E) 09:48:19 435.000/436.395/437.385
CANX-2 26 Nov 09:47:18 09:51:37 80° 284° (WNW) 09:55:55 2200.000
DX 1 26 Nov 09:49:05 09:52:41 25° 96° (E) 09:56:14 434.975-435.025
COMPASS 1 26 Nov 09:50:47 09:55:02 74° 102° (ESE) 09:59:17 437.405
NANOSAT C BR1 26 Nov 09:54:32 09:57:29 19° 67° (ENE) 10:00:26 145.865
QB50P1 26 Nov 10:03:58 10:07:21 24° 69° (ENE) 10:10:45 145.935-145.965
TIGRISAT 26 Nov 10:05:23 10:09:14 34° 71° (ENE) 10:13:05 435.000
CINEMA 3 26 Nov 10:10:19 10:14:26 48° 100° (E) 10:18:39 145.822/145.860
BUGSAT 1 26 Nov 10:13:03 10:16:31 25° 69° (ENE) 10:19:58 437.445
HO-68 26 Nov 10:16:06 10:23:12 66° 289° (WNW) 10:30:15 435.675
ZACube-1 26 Nov 10:17:38 10:21:13 26° 96° (E) 10:24:50 437.345
UNISAT 6 26 Nov 10:18:52 10:23:00 51° 74° (ENE) 10:27:09 437.425
GOMX 1 26 Nov 10:19:32 10:23:36 55° 285° (WNW) 10:27:46 467.674
VELOX 1 26 Nov 10:20:38 10:23:32 17° 94° (E) 10:26:24 145.980
CUTE 1.7 & AOD 2 26 Nov 10:22:17 10:26:10 34° 288° (WNW) 10:30:04 437.475
POPSAT HIP 1 26 Nov 10:28:02 10:32:05 44° 73° (ENE) 10:36:08 437.405
AISAT 26 Nov 10:46:10 10:50:11 34° 98° (E) 10:54:11 437.250
ANTELSAT 26 Nov 10:47:32 10:51:48 73° 258° (WSW) 10:56:04 437.575/2403.000
UKube-1 26 Nov 10:48:46 10:53:05 67° 285° (WNW) 10:57:22 .
GONETS M04 26 Nov 10:49:45 10:55:59 21° 294° (WNW) 11:02:17
BRITE-PL 26 Nov 10:50:42 10:53:32 18° 292° (WNW) 10:56:23 437.365/2234.400
FUNcube-1 26 Nov 10:52:06 10:56:20 66° 101° (E) 11:00:38 145.935
SEEDS 26 Nov 10:55:48 10:58:40 18° 293° (WNW) 11:01:32 437.485
CUBEBUG 1 26 Nov 10:59:02 11:01:41 16° 93° (E) 11:04:20 437.445
Oscar 11 26 Nov 11:00:02 11:04:07 41° 287° (WNW) 11:08:12 145.826/435.025
POLYITAN 1 26 Nov 11:01:34 11:05:50 72° 258° (WSW) 11:10:05 437.675
QB50P2 26 Nov 11:03:28 11:07:43 68° 258° (WSW) 11:11:58 145.880/145.840
DUCHIFAT 1 26 Nov 11:09:22 11:13:34 59° 259° (W) 11:17:46 145.980
AAUSAT CUBESAT 2 26 Nov 11:12:19 11:14:49 16° 293° (WNW) 11:17:20 437.432
DOVE 4 26 Nov 11:14:57 11:17:52 19° 292° (WNW) 11:20:49 437.250
DELFI C3 26 Nov 11:14:57 11:18:36 31° 289° (WNW) 11:22:14 145.870
UWE-3 26 Nov 11:19:08 11:23:14 49° 286° (WNW) 11:27:25 435.000/436.395/437.385
CUBEBUG 2 26 Nov 11:19:38 11:23:39 42° 287° (WNW) 11:27:45 437.445
50 SAT 26 Nov 11:20:49 11:24:53 71° 101° (ESE) 11:28:57 437.505
DX 1 26 Nov 11:25:14 11:28:50 26° 291° (WNW) 11:32:25 434.975-435.025
NANOSAT C BR1 26 Nov 11:29:14 11:33:07 34° 262° (W) 11:37:00 145.865
HUMSAT D 26 Nov 11:34:10 11:38:19 65° 285° (WNW) 11:42:29 437.325/437.525
QB50P1 26 Nov 11:39:32 11:43:08 26° 264° (W) 11:46:44 145.935-145.965
TIGRISAT 26 Nov 11:43:15 11:46:05 17° 266° (W) 11:48:56 435.000
BUGSAT 1 26 Nov 11:48:23 11:51:55 25° 264° (W) 11:55:27 437.445
CINEMA 3 26 Nov 11:49:11 11:51:16 14° 294° (WNW) 11:53:23 145.822/145.860
ZACube-1 26 Nov 11:54:04 11:57:29 24° 290° (WNW) 12:00:56 437.345
ESTCUBE 1 26 Nov 11:55:37 12:00:11 76° 102° (ESE) 12:04:41 437.505/2401.250
VELOX 1 26 Nov 11:56:09 12:00:15 38° 289° (WNW) 12:04:20 145.980
UNISAT 6 26 Nov 11:58:31 12:00:06 12° 268° (W) 12:01:40 437.425
POPSAT HIP 1 26 Nov 12:05:58 12:08:11 14° 267° (W) 12:10:25 437.405
HO-68 26 Nov 12:07:20 12:09:32 12° 308° (NW) 12:11:45 435.675
TISAT 1 26 Nov 12:10:01 12:13:27 24° 96° (E) 12:16:51 437.305
SPROUT 26 Nov 12:20:44 12:24:27 28° 96° (E) 12:28:09 437.525
AISAT 26 Nov 12:23:21 12:26:35 20° 293° (WNW) 12:29:48 437.250
FUNcube-1 26 Nov 12:31:38 12:32:09 10° 296° (WNW) 12:32:40 145.935
CUBEBUG 1 26 Nov 12:34:09 12:38:14 40° 288° (WNW) 12:42:17 437.445
SO-50 26 Nov 12:49:06 12:53:52 52° 55° (NE) 12:58:39 436.795
Oscar 19 26 Nov 12:54:11 12:58:55 40° 71° (ENE) 13:03:41 437.125/150
ITUPSAT 1 26 Nov 13:08:02 13:10:50 15° 92° (E) 13:13:38 437.325
YUBILEINY 26 Nov 13:12:22 13:19:54 32° 71° (ENE) 13:27:22 435.215
SWISSCUBE 26 Nov 13:18:04 13:21:47 22° 95° (E) 13:25:27 437.505
ESTCUBE 1 26 Nov 13:35:52 13:36:23 10° 298° (WNW) 13:36:54 437.505/2401.250
CUSAT 1 26 Nov 13:39:47 13:42:30 55° 280° (W) 13:45:03 437.405
AUBIESAT-1 26 Nov 13:42:10 13:46:49 41° 103° (ESE) 13:51:18 437.475
TISAT 1 26 Nov 13:45:45 13:49:12 25° 291° (WNW) 13:52:38 437.305
M-CUBED/EXP-1 PRIME 26 Nov 13:47:35 13:52:25 51° 104° (ESE) 13:57:05 437.505
ITAMSAT 1 26 Nov 13:47:51 13:52:53 52° 72° (ENE) 13:57:56 435.822/435.867
BEESAT 26 Nov 13:48:24 13:52:57 42° 99° (E) 13:57:28 436.000
SPROUT 26 Nov 13:57:05 14:00:23 22° 292° (WNW) 14:03:40 437.525
PHONESAT 2.4 26 Nov 14:02:59 14:05:37 19° 146° (SE) 14:08:17 2401.200-2431.200
DANDE 26 Nov 14:08:03 14:10:26 24° 282° (WNW) 14:12:39 436.750
KKS-1 26 Nov 14:09:37 14:11:42 13° 92° (E) 14:13:46 437.445
VERMONT LUNAR 26 Nov 14:11:38 14:14:48 29° 150° (SSE) 14:17:59 437.305
Gurwin Techsat 1B 26 Nov 14:22:28 14:27:42 62° 73° (ENE) 14:32:57 435.225
HORYU 2 26 Nov 14:22:30 14:26:02 24° 68° (ENE) 14:29:36 437.375
MaSat-1 26 Nov 14:30:26 14:31:15 11° 107° (ESE) 14:32:02 437.345
SO-50 26 Nov 14:30:47 14:34:01 18° 251° (WSW) 14:37:15 436.795
Oscar 19 26 Nov 14:34:31 14:38:22 22° 266° (W) 14:42:15 437.125/150
ITUPSAT 1 26 Nov 14:44:20 14:49:00 50° 288° (WNW) 14:53:36 437.325
SWISSCUBE 26 Nov 14:55:21 14:59:42 35° 290° (WNW) 15:04:01 437.505
STARS 26 Nov 15:02:46 15:06:47 35° 98° (E) 15:10:48 437.465
YUBILEINY 26 Nov 15:08:39 15:16:59 53° 270° (W) 15:25:16 435.215
AUBIESAT-1 26 Nov 15:17:42 15:21:29 23° 298° (WNW) 15:25:12 437.475
AO-7 26 Nov 15:19:16 15:27:06 49° 65° (ENE) 15:34:58 29.400- 29.500
M-CUBED/EXP-1 PRIME 26 Nov 15:23:37 15:27:00 19° 300° (WNW) 15:30:21 437.505
BEESAT 26 Nov 15:27:07 15:30:28 19° 294° (WNW) 15:33:48 436.000
ITAMSAT 1 26 Nov 15:29:15 15:32:38 17° 267° (W) 15:36:03 435.822/435.867
PHONESAT 2.4 26 Nov 15:40:22 15:44:04 77° 161° (SSE) 15:47:47 2401.200-2431.200
O/OREOS (USA 219) 26 Nov 15:40:46 15:44:40 29° 62° (ENE) 15:48:34 437.305
KKS-1 26 Nov 15:44:19 15:48:37 50° 287° (WNW) 15:52:54 437.445
VERMONT LUNAR 26 Nov 15:49:29 15:53:06 78° 347° (NNW) 15:56:44 437.305
HORYU 2 26 Nov 15:58:47 16:02:35 28° 263° (W) 16:06:25 437.375
MaSat-1 26 Nov 16:03:05 16:05:34 24° 298° (WNW) 16:07:52 437.345
Gurwin Techsat 1B 26 Nov 16:05:11 16:08:03 15° 269° (W) 16:10:56 435.225
RS-15 26 Nov 16:12:44 16:23:30 64° 114° (ESE) 16:34:13 29.354- 29.394
JAS-2 26 Nov 16:32:56 16:40:10 49° 69° (ENE) 16:47:38 435.910
Cubesat XI-IV 26 Nov 16:36:33 16:36:48 10° 59° (ENE) 16:37:04 437.490
STARS 26 Nov 16:39:54 16:43:01 19° 293° (WNW) 16:46:09 437.465
MOZHAYETS 4 26 Nov 16:53:13 16:56:53 23° 94° (E) 17:00:31
AO-7 26 Nov 17:12:37 17:19:59 35° 262° (W) 17:27:26 29.400- 29.500
CUTE-I 26 Nov 17:13:23 17:17:33 24° 66° (ENE) 17:21:43 437.470
PHONESAT 2.4 26 Nov 17:19:19 17:22:59 56° 357° (N) 17:26:39 2401.200-2431.200
O/OREOS (USA 219) 26 Nov 17:20:21 17:23:55 24° 258° (WSW) 17:27:29 437.305
VERMONT LUNAR 26 Nov 17:28:13 17:31:47 55° 3° (N) 17:35:22 437.305
PRISM 26 Nov 17:53:02 17:55:38 16° 93° (E) 17:58:14 437.425
Cubesat XI-IV 26 Nov 18:10:38 18:16:00 82° 75° (ENE) 18:21:23 437.490
JAS-2 26 Nov 18:18:30 18:25:14 35° 266° (W) 18:32:15 435.910
RS-15 26 Nov 18:26:32 18:36:27 38° 317° (NW) 18:46:28 29.354- 29.394
MOZHAYETS 4 26 Nov 18:29:58 18:34:07 32° 290° (WNW) 18:38:14
CUBESAT XI-V 26 Nov 18:36:36 18:40:00 20° 93° (E) 18:43:22 437.345
PCSat 26 Nov 18:52:10 18:55:59 20° 105° (ESE) 18:59:48 145.827
CUTE-I 26 Nov 18:52:17 18:57:20 42° 261° (W) 19:02:24 437.470
AIST 1 26 Nov 18:57:19 18:58:41 11° 84° (E) 19:00:03
PHONESAT 2.4 26 Nov 18:58:15 19:01:59 80° 15° (NNE) 19:05:42 2401.200-2431.200
HO-68 26 Nov 18:59:01 19:02:34 15° 54° (NE) 19:06:07 435.675
GONETS M04 26 Nov 19:02:27 19:10:24 36° 73° (ENE) 19:18:14
VERMONT LUNAR 26 Nov 19:06:45 19:10:23 76° 200° (SSW) 19:14:00 437.305
STRAND 1 26 Nov 19:22:10 19:27:12 56° 101° (E) 19:32:10 437.568
PRISM 26 Nov 19:27:23 19:31:20 38° 288° (WNW) 19:35:14 437.425
CUTE 1.7 & AOD 2 26 Nov 19:40:50 19:42:03 11° 64° (ENE) 19:43:16 437.475
AIST 2 26 Nov 19:41:11 19:41:32 10° 106° (ESE) 19:41:53 435.215
GOMX 1 26 Nov 19:51:10 19:52:52 12° 65° (ENE) 19:54:31 467.674
